Regional Weather Roundup
Issued by NWS Midland/Odessa, TX

Skip options and go directly to product.
Home | Oldest Version | Previous Version | Current Version | All | Graphics & Text | Save Text | Print | Product List | Glossary On

Skip product version selection by date and time.   
542
ASUS44 KMAF 281610
RWRMAF
MIDLAND AREA WEATHER ROUNDUP
NATIONAL WEATHER SERVICE MIDLAND TX
1000 AM CST FRI NOV 28 2014

...IN SOUTHWEST TEXAS AND SOUTHEAST NEW MEXICO...

CITY           SKY/WX    TMP DP  RH WIND       PRES   REMARKS
ALPINE         SUNNY     59  23  25 SW18      30.32S
ANDREWS        FAIR      54  33  44 SW8       30.19R
ARTESIA        NOT AVBL
BIG SPRING     SUNNY     56  38  50 S16       30.20F
CARLSBAD       SUNNY     47  30  51 CALM      30.18S
DRYDEN           N/A     51  39  63 CALM      30.26R
FORT STOCKTON  LGT RAIN  64  25  22 SW18      30.20S
GUAD PASS      NOT AVBL
HOBBS          SUNNY     48  32  53 S8        30.19S
MARFA          SUNNY     50  27  40 S5        30.32S
MIDLAND AIRPK  SUNNY     55  36  48 S8        30.20R
MIDLAND INTL   SUNNY     54  35  48 S14       30.19F
ODESSA         SUNNY     54  32  43 SW13      30.20S
PECOS          SUNNY     44  30  59 CALM      30.21S
PRESIDIO       FAIR      53  30  41 SE3       30.28S
SEMINOLE       SUNNY     52  33  47 SW10      30.18S
SNYDER         SUNNY     49  39  68 SW14      30.18F
WINK           SUNNY     50  33  52 CALM      30.19R
$$
...OTHER STATIONS IN TEXAS...

CITY           SKY/WX    TMP DP  RH WIND       PRES   REMARKS
ABILENE        SUNNY     55  45  68 SW18G33   30.19R
AMARILLO       MOSUNNY   52  28  39 SW6       30.04F
AUSTIN         PTSUNNY   57  49  74 S13       30.31F
BROWNSVILLE    SUNNY     73  56  54 S10       30.32S
CORPUS CHRISTI MOSUNNY   66  58  75 S7        30.33R
DALLAS FTW     MOSUNNY   56  40  55 S14       30.22F
DEL RIO        CLOUDY    51  50  96 E9        30.29S FOG
EL PASO        SUNNY     48  24  39 N6        30.26R
HOUSTON INT    SUNNY     59  49  69 SE8       30.35S
LUBBOCK        PTSUNNY   54  30  40 SW17      30.12F
SAN ANGELO     SUNNY     59  46  62 S23G31    30.22S
SAN ANTONIO    MOSUNNY   57  52  83 S6        30.33S
WACO           MOSUNNY   58  47  66 S13       30.28F
WICHITA FALLS  NOT AVBL
$$
...OTHER LOCATIONS IN NEW MEXICO...

CITY           SKY/WX    TMP DP  RH WIND       PRES   REMARKS
ALAMAGORDO     MOSUNNY   46  23  39 S3        30.28R
ALBUQUERQUE    MOSUNNY   39  19  44 NW5       30.30R WCI  36
CANNON AFB     MOSUNNY   54  24  31 W16       30.14R
CLOVIS         MOSUNNY   55  27  33 W20       30.12S
HOLLOMAN AFB   MOSUNNY   46  22  39 CALM      30.27R
ROSWELL        MOSUNNY   44  30  57 CALM      30.18S
RUIDOSO        SUNNY     54  18  24 NW7       30.31S
SANTA FE       SUNNY     39  21  48 N14       30.29S WCI  31
TRUTH OR CONSE SUNNY     48  19  31 N5        30.28R
TUCUMCARI      PTSUNNY   60  21  22 W20       30.07S
$$

USA.gov is the U.S. government's official web portal to all federal, state and local government web resources and services.